Location: Newark
(52.2090°N, 4.1550°W)
Time: 16:05:14
(UTC+00:00)

Vanguard 2 - Visible Passes

Search period start: 15 September 2019 00:00
Search period end: 25 September 2019 00:00
Orbit: 554 x 2937 km, 32.9° (Epoch: 15 September)

Date Brightness Start Highest point End Pass type
(mag) Time Alt. Az. Time Alt. Az. Time Alt. Az.
16 Sep 10.8 04:03:38 10° S 04:04:24 10° SSE 04:05:09 10° SSE visible
17 Sep 10.6 04:17:59 10° SSW 04:22:03 13° S 04:25:28 10° SE visible
18 Sep 10.4 04:34:15 10° SSW 04:39:41 16° S 04:43:59 10° SE visible
19 Sep 10.8 02:47:35 13° S 02:49:04 13° SSE 02:53:10 10° SE visible
19 Sep 10.3 04:51:04 10° SW 04:57:19 18° S 05:02:03 10° SE visible
20 Sep 10.7 03:04:23 16° S 03:06:43 17° SSE 03:12:10 10° SE visible
20 Sep 10.2 05:08:14 10° SW 05:14:54 19° S 05:19:52 10° SE visible
21 Sep 10.5 03:21:08 18° S 03:24:21 20° S 03:30:32 10° SE visible
21 Sep 10.2 05:25:40 10° SW 05:32:28 20° S 05:37:29 10° SSE visible
22 Sep 11.0 01:36:28 14° SE 01:36:28 14° SE 01:39:11 10° SE visible
22 Sep 10.4 03:37:52 19° SSW 03:41:58 23° S 03:48:35 10° SE visible
23 Sep 10.8 01:53:11 18° SSE 01:53:11 18° SSE 01:58:05 10° ESE visible
23 Sep 10.3 03:54:34 19° SSW 03:59:35 24° S 04:06:25 10° SE visible
24 Sep 10.7 02:09:52 22° SSE 02:09:52 22° SSE 02:16:27 10° ESE visible
24 Sep 10.3 04:11:16 18° SW 04:17:09 26° S 04:24:06 10° SE visible
